Regional Weather Roundup
Issued by NWS

Home | Current Version | Previous Version | Graphics & Text | Print | Product List | Glossary On
Versions: 1 2 3 4 5 6 7 8 9 10 11 12 13 14 15 16 17 18 19 20 21 22 23 24 25 26 27 28 29 30 31 32 33 34 35 36 37 38 39 40 41 42 43 44 45 46 47 48 49 50
000
ASUS43 KIND 310659
RWRIN

WEATHER ROUNDUP FOR INDIANA
NATIONAL WEATHER SERVICE INDIANAPOLIS IN
200 AM EST SAT JAN 31 2015

NOTE: "FAIR" INDICATES FEW OR NO CLOUDS BELOW 12,000 FEET WITH NO
SIGNIFICANT WEATHER AND/OR OBSTRUCTIONS TO VISIBILITY.

* - STATION DOES NOT REPORT WEATHER SUCH AS PRECIPITATION OR FOG.

+ - STATION NOT QUALITY CONTROLLED BY THE NATIONAL WEATHER SERVICE.
    USE DATA WITH CAUTION...ESPECIALLY DEWPOINT AND RELATIVE
    HUMIDITY OBSERVATIONS.

INZ001>003-010>013-019-020-310800-
NORTHWEST INDIANA

CITY           SKY/WX    TMP DP  RH WIND       PRES   REMARKS
VALPARAISO     NOT AVBL

$$

LMZ046-743>745-310800-
SOUTHERN LAKE MICHIGAN

STATION/POSITION TIME  TEMP WIND        PRES
                       AIR  DIR/SP/G
                 (UTC) (F)  (DEG/KT/KT) (MB)
MICHIGAN CITY    0600   23  170/  9/ 11   N/A

$$

INZ004-005-014>016-021>024-310800-
NORTH CENTRAL INDIANA

CITY           SKY/WX    TMP DP  RH WIND       PRES   REMARKS
GOSHEN         CLEAR     17  11  77 S5        30.34F WCI  10
SOUTH BEND     CLEAR     17  11  77 SW6       30.35F WCI   9

$$

INZ006>009-017-018-025>027-310800-
NORTHEAST INDIANA

CITY           SKY/WX    TMP DP  RH WIND       PRES   REMARKS
ANGOLA *+      CLEAR     10   9  92 CALM      30.33F
FORT WAYNE     PTCLDY    17  13  84 S6        30.37F WCI   9

$$

INZ028-029-035-036-043>045-051>053-310800-
WEST CENTRAL INDIANA

CITY           SKY/WX    TMP DP  RH WIND       PRES   REMARKS
GREENCASTLE +  CLEAR     19  14  79 CALM      30.39F
LAFAYETTE      CLEAR     19  17  92 CALM      30.38F
TERRE HAUTE    CLEAR     21  16  81 CALM      30.41F

$$

INZ030>032-037>040-046>048-054>057-064-065-310800-
CENTRAL INDIANA

CITY           SKY/WX    TMP DP  RH WIND       PRES   REMARKS
INDIANAPOLIS   CLEAR     20  15  81 S5        30.39F WCI  13
-EAGLE CREEK   CLEAR     18  14  84 CALM      30.38F
KOKOMO *+      CLEAR     21  14  73 S8        30.37F WCI  12
MT COMFORT *+  CLEAR     19  14  79 CALM      30.39F
SHELBYVILLE    CLEAR     20  16  84 SE5       30.39F WCI  13

$$

INZ033-034-041-042-049-050-058-059-310800-
EAST CENTRAL INDIANA

CITY           SKY/WX    TMP DP  RH WIND       PRES   REMARKS
MUNCIE         CLEAR     20  15  81 S6        30.38F WCI  12

$$

INZ060-061-067>069-081>083-085>088-310800-
SOUTHWEST INDIANA

CITY           SKY/WX    TMP DP  RH WIND       PRES   REMARKS
EVANSVILLE     CLEAR     25  20  81 CALM      30.43F
HUNTINGBURG *+ CLEAR     21  18  86 CALM      30.42F

$$

INZ062-063-066-070>080-084-089>092-310800-
SOUTH CENTRAL AND SOUTHEAST INDIANA

CITY           SKY/WX    TMP DP  RH WIND       PRES   REMARKS
BLOOMINGTON    CLEAR     19  15  84 CALM      30.39F
SEYMOUR +      CLEAR     21  18  86 CALM      30.41F

$$



USA.gov is the U.S. government's official web portal to all federal, state and local government web resources and services.